Location: Unspecified
(42.2730°N, 83.7130°W)
Time: 14:50:02
(UTC+00:00)

IRS-P3 - Pass Details

Date: 14 December 2025
Orbit: 810 x 816 km, 99.0° (Epoch: 17 January)

Event Time Altitude Azimuth Distance (km) Brightness Sun altitude
Rises 23:15:21 0° 157° (SSE) 3,323 7.3 -12.9°
Reaches altitude 10° 23:17:42 10° 155° (SSE) 2,395 6.5 -13.3°
Maximum altitude 23:22:57 70° 73° (ENE) 866 4.0 -14.2°
Drops below altitude 10° 23:28:15 10° 351° (N) 2,408 6.5 -15.1°
Sets 23:30:36 0° 349° (N) 3,343 7.2 -15.5°
